{"data":{"norad_id":58481,"intl_designator":"2023-186J","name":"STARLINK-30956","alt_names":[],"object_type":"PAYLOAD","status":"ACTIVE","operator":null,"country":"US","launch_date":"2023-12-03","launch_site_code":"AFETR","launch_vehicle":null,"mission":null,"orbit_class":"UNKNOWN","rcs_meters":null,"size_class":null,"mass_kg":null,"dimensions":null,"purposes":["comms"],"wikipedia_slug":null,"has_3d_model":false,"image_url":null,"decayed_at":null,"tle_current":{"epoch":"2026-09-19T15:14:58.879680Z","epoch_age_seconds":221422,"freshness":"STALE","line1":"1 58481U 23186J   26262.63540370  .00000417  00000+0  24688-4 0  9995","line2":"2 58481  43.0012  25.9752 0000982 288.3443  71.7302 15.27577317155814","mean_motion":15.27577317,"eccentricity":9.82e-5,"inclination_deg":43.0012,"raan_deg":25.9752,"arg_perigee_deg":288.3443,"mean_anomaly_deg":71.7302,"bstar":2.4688e-5,"rev_number":15581,"period_min":94.266914281498,"perigee_km":482.38336065506,"apogee_km":483.73089918217,"semimajor_km":6861.1941299186,"source":"CELESTRAK","updated_at":"2026-09-21T09:00:33.881666Z"}}}